Regional Weather Roundup
Issued by NWS

Home | Current Version | Previous Version | Text Only | Print | Product List | Glossary On
Versions: 1 2 3 4 5 6 7 8 9 10 11 12 13 14 15 16 17 18 19 20 21 22 23 24 25 26 27 28 29 30 31 32 33 34 35 36 37 38 39 40 41 42 43 44 45 46 47 48 49 50
000
ASUS44 KLUB 011610
RWRTX
WEST TEXAS WEATHER ROUNDUP
NATIONAL WEATHER SERVICE LUBBOCK TX
1100 AM CDT SAT OCT 01 2016

NOTE: "FAIR" INDICATES FEW OR NO CLOUDS BELOW 12,000 FEET WITH NO
SIGNIFICANT WEATHER AND/OR OBSTRUCTIONS TO VISIBILITY.

TXZ004-006>008-010-012-014-016-OKZ002-011700-
TEXAS PANHANDLE/OKLAHOMA PANHANDLE

CITY           SKY/WX    TMP DP  RH WIND       PRES   REMARKS
AMARILLO       SUNNY     72  55  55 S20       30.12S
BORGER         SUNNY     72  55  55 S12G18    30.09S
CANADIAN       SUNNY     73  54  50 S16G22    30.08R
DALHART        SUNNY     68  51  54 CALM      30.12S
DUMAS          SUNNY     68  53  58 SW9       30.11R
GUYMON         SUNNY     73  51  46 SW13      30.07F
HEREFORD       SUNNY     71  58  64 SW15G22   30.13S
PAMPA          SUNNY     74  55  51 S14       30.12R
PERRYTON       MOSUNNY   73  53  49 S13       30.09S
$$

TXZ026-029-035-045-048-011700-
SOUTHERN PANHANDLE/SOUTH PLAINS/ROLLING PLAINS

CITY           SKY/WX    TMP DP  RH WIND       PRES   REMARKS
CHILDRESS      SUNNY     73  54  51 S12       30.12R
SEMINOLE       MOSUNNY   70  57  64 S9        30.15S
LUBBOCK        MOSUNNY   75  52  44 S16       30.13R
PLAINVIEW      SUNNY     72  51  48 SW17      30.11S
SNYDER           N/A     72  55  56 S12       30.13S
$$

TXZ052-054-060>062-072-078-127-140-154-169-011700-
PERMIAN BASIN/CONCHO VALLEY/BIG COUNTRY/EDWARDS PLATEAU

CITY           SKY/WX    TMP DP  RH WIND       PRES   REMARKS
ABILENE        SUNNY     75  52  44 S10       30.12F
BIG SPRING     SUNNY     73  56  55 S15       30.15F
BROWNWOOD      SUNNY     73  54  49 S7        30.14S
JUNCTION       CLOUDY    71  55  56 S6        30.14S
MIDLAND        MOSUNNY   72  56  57 S14       30.14R
ODESSA         SUNNY     73  56  54 S12       30.14S
SAN ANGELO     MOSUNNY   74  57  55 S7        30.13S
SONORA         PTSUNNY   70  54  56 SE9       30.19S
SWEETWATER     SUNNY     74  55  50 S13       30.15F
WINK           SUNNY     74  59  59 VRB5      30.10S
$$

TXZ055-058-074-075-080-082-011700-
FAR WEST/SOUTHWEST MOUNTAINS/TRANS PECOS

CITY           SKY/WX    TMP DP  RH WIND       PRES   REMARKS
ALPINE         MOSUNNY   70  60  71 SW6       30.26R
DRYDEN           N/A     69  63  81 E7        30.12S
EL PASO        MOSUNNY   72  58  61 S8        30.17S
FORT STOCKTON  CLOUDY    75  62  64 SE3       30.13R
GUADALUPE PASS FOG       61  60  97 SW17      30.25R VSB 1/4
MARFA          MOSUNNY   67  61  81 SW8       30.24S
PECOS          SUNNY     73  62  70 NE3       30.11S
PRESIDIO       PTSUNNY   74  65  74 CALM      30.14S
$$

TXZ014-016-019-021>030-083-011700
TEXAS TECH WEST TEXAS MESONET/TEXAS PANHANDLE/NORTHERN SOUTH PLAINS

CITY           SKY/WX    TMP DP  RH WIND       PRES   REMARKS
ABERNATHY 5ENE   N/A     73  52  47 S16       30.16S
AMARILLO 9NNE    N/A     73  56  54 S16       30.11S
AMARILLO 7SSE    N/A     73  56  53 S16       30.13F
AMHERST 1NE      N/A     71  57  61 S13       30.15S
BOOTLEG 11WNW    N/A     67  53  61 SW6       30.16F
CANADIAN 6E      N/A     74  52  46 S12       30.09S
CAPROCK CYN SP   N/A     73  56  54 SE7       30.13
CHILDRESS 2NNE   N/A     74  53  47 S12       30.12F
CLARENDON 2WSW   N/A     70  53  55 S8        30.13F
CLAUDE 12SW      N/A     69  54  59 S9        30.13S
DIMMITT 2NE      N/A     69  57  67 S15       30.14S
FLOYDADA 2NNE    N/A     74  50  43 S18       30.13F
FRIONA 2NE       N/A     69  56  64 SW10      30.15S
GOODLETT 3W      N/A     74  53  48 SE8       30.11S
HART 3N          N/A     70  57  64 S14       30.14S
HEREFORD 2NW     N/A     68  54  61 S14       30.15S
MCLEAN 1E        N/A     69  51  54 S14G20    30.12S
MEMPHIS 1NE      N/A     71  55  56 SE8       30.12F
MULESHOE 2SSW    N/A     71  57  61 S12       30.15R
OLTON 6S         N/A     71  57  60 S14       30.14F
PALO DURO SP     N/A     74  55  52 SE7       30.14S
PAMPA 2E         N/A     71  53  54 S14       30.13R
PLAINVIEW 1S     N/A     72  54  51 S14G20    30.13S
SILVERTON 7ESE   N/A     74  51  43 S13       30.12S
TULIA 2ENE       N/A     72  57  58 S17G23    30.13F
TURKEY 2WSW      N/A     73  56  56 SE7       30.12S
UMBARGER 3NNE    N/A     72  57  58 SW16      30.13F
$$

TXZ033>036-039>041-045>048-011700
TEXAS TECH WEST TEXAS MESONET/SOUTH PLAINS

CITY           SKY/WX    TMP DP  RH WIND       PRES   REMARKS
AIKEN 3WSW       N/A     73  52  48 S20       30.15S
ANDREWS 2NE      N/A     73  56  55 SE10      30.16F
ANTON 6SSW       N/A     72  57  59 S16       30.15R
BROWNFIELD 2S    N/A     70  56  60 S15       30.15S
DENVR CTY 7WNW   N/A     71  56  58 S10       30.16S
GAIL 2ESE        N/A     76  54  47 S10       30.13S
LAMESA 2SE       N/A     71  56  58 S15       30.16R
LEVELLAND 4S     N/A     71  56  57 S14       30.15S
LUBBOCK 3WNW     N/A     74  52  45 S15G22    30.15R
MORTON 1ENE      N/A     73  58  59 S13       30.15S
ODONNELL 1N      N/A     73  52  48 S13       30.15S
PLAINS 3N        N/A     71  56  59 S12       30.16S
RALLS 1SE        N/A     74  52  45 S15       30.15F
REESE CENTER     N/A     72  53  51 S16       30.15S
SEAGRAVES 1SW    N/A     71  57  61 S12       30.16R
SEMINOLE 2NNE    N/A     71  57  61 S8        30.15S
SLATON 2NE       N/A     72  53  50 S17       30.15S
SNYDER 3E        N/A     75  56  52 S12       30.13F
SUNDOWN 8SW      N/A     73  57  56 S10       30.15
TAHOKA 3NNE      N/A     73  54  51 S14       30.15S
WOLFFORTH 6SSW   N/A     72  55  53 S17G23    30.15S
$$

TXZ031-032-036>038-042>044-011700-
TEXAS TECH WEST TEXAS MESONET/ROLLING PLAINS

CITY           SKY/WX    TMP DP  RH WIND       PRES   REMARKS
ASPERMONT 3NE    N/A     76  53  43 S8        30.11S
FLUVANNA 3WNW    N/A     72  54  53 S14       30.14S
GRAHAM 5SSW      N/A     73  54  51 S13       30.14S
GUTHRIE 10WSW    N/A     72  55  54 S3        30.11F
HASKELL 1NW      N/A     74  51  43 S7        30.11F
JAYTON 1SSE      N/A     76  54  46 SW7       30.11S
KNOX CITY 3NW    N/A     76  50  40 S6        30.12S
LK A HENRY 1NW   N/A     77  53  43 S12       30.12F
NORTHFIELD 1S    N/A     74  57  56 S8        30.11S
ODELL 4ENE       N/A     74  53  48 SE9       30.12F
PADUCAH 10SW     N/A     70  56  62 S7        30.12F
POST 1NE         N/A     74  53  48 S12       30.13S
RRING SPRGS 3N   N/A     76  56  49 S12       30.13S
SEYMOUR 3NW      N/A     72  54  52 SE6       30.12S
SPUR 1W          N/A     73  53  49 SW9       30.13S
WHITE RVR 6NE    N/A     74  53  47 S16       30.13F
$$

TXZ052-054-060>062-072-078-127-140-154-169-011700-
TEXAS TECH WEST TEXAS MESONET/PERMIAN BASIN/
CONCHO VALLEY/BIG COUNTRY/EDWARDS PLATEAU

CITY           SKY/WX    TMP DP  RH WIND       PRES   REMARKS
COYANOSA 2N      N/A     78  62  56 E6        30.12S
JUNCTION 1SSW    N/A     73  56  55 SW1       30.15F
MERTZON 3NNE     N/A     75  57  54 S8        30.16S
SAN ANGELO 7NW   N/A     72  55  55 SW5       30.14F
STRLNG CT 4WSW   N/A     73  57  56 S9        30.15S
ST LAWRNCE 5SW   N/A     69  56  63 S13       30.15S
WALL 1E          N/A     72  54  53 S6        30.15F
$$

TXZ055-058-074-075-080-082-011700-
TEXAS TECH WEST TEXAS MESONET/FAR WEST/SOUTHWEST MOUNTAINS/TRANS PECOS

CITY           SKY/WX    TMP DP  RH WIND       PRES   REMARKS
PRSMN GAP BBNP   N/A     74  60  60 S3        30.15S
GUADLPE MTN NP   N/A     67  58  72 S12       30.25R
$$



USA.gov is the U.S. government's official web portal to all federal, state and local government web resources and services.